Location: Branche des Alpilles
(43.6087°N, 4.6976°E)
Time: 10:10:59
(UTC+00:00)

FENGYUN 1C DEB - Pass Details

Date: 27 June 2021
Orbit: 782 x 878 km, 99.7° (Epoch: 28 July)

Event Time Altitude Azimuth Distance (km) Brightness Sun altitude
Exits shadow 23:59:53 - 110° (ESE) 2,691 ? -23.0°
Reaches altitude 10° 00:00:59 10° 102° (ESE) 2,371 ? -23.0°
Maximum altitude 00:04:29 19° 59° (ENE) 1,833 ? -22.9°
Drops below altitude 10° 00:07:59 10° 17° (NNE) 2,356 ? -22.8°
Sets 00:10:55 0° 359° (N) 3,283 ? -22.8°
